Hartford, CT

7:44 AM EST on January 16, 2018 (GMT -0500)
Hartford-brainard

Weather History for KHFD - May, 2013

Change the Weather History Date:

Tuesday, May 21, 2013

  Actual Average Record
Temperature  
Mean Temperature 75 °F -  
Max Temperature 88 °F 73 °F 91 °F (1975)
Min Temperature 62 °F 50 °F 36 °F (1964)
Cooling Degree Days 10    
Growing Degree Days 25 (Base 50)    
Moisture  
Dew Point 64 °F    
Average Humidity 84    
Maximum Humidity 100    
Minimum Humidity 51    
Precipitation  
Precipitation 0.00 in - - ()
Sea Level Pressure  
Sea Level Pressure 29.91 in    
Wind  
Wind Speed 2 mph (South)    
Max Wind Speed 13 mph    
Max Gust Speed 22 mph    
Visibility 6 miles    
Events Fog , Rain    
Averages and records for this station are not official NWS values.
T = Trace of Precipitation, MM = Missing Value Source: NWS Daily Summary

Daily Weather History Graph

Daily Weather History Graph

Search for Another Location

Airport or City:

Trip Planner

Search our weather history database for the weather conditions in past years. The results will help you decide how hot, cold, wet, or windy it might be!

Date:

Astronomy

May. 21, 2013 Rise Set
Actual Time 5:25 AM EDT 8:09 PM EDT
Civil Twilight 4:52 AM EDT 8:42 PM EDT
Nautical Twilight 4:12 AM EDT 9:23 PM EDT
Astronomical Twilight 3:25 AM EDT 10:09 PM EDT
Moon 4:17 PM EDT (5/21) 2:55 AM EDT (5/21)
Length of Visible Light 15h 49m
Length of Day
14h 44m
Waxing Gibbous, 84% of the Moon is Illuminated
May 21
Waxing Gibbous
May 25
Full
May 31
Last Quarter
Jun 8
New
Jun 16
First Quarter

Hourly Weather History & Observations

Time (EDT) Temp. Heat Index Dew Point Humidity Pressure Visibility Wind Dir Wind Speed Gust Speed Precip Events Conditions
12:53 AM 64.9 °F - 63.0 °F 93% 29.96 in 7.0 mi Calm Calm - N/A   Clear
1:36 AM 64.4 °F - 62.6 °F 94% 29.96 in 1.8 mi Calm Calm - N/A   Clear
1:44 AM 64.4 °F - 62.6 °F 94% 29.96 in 3.0 mi Calm Calm - N/A   Clear
1:53 AM 64.0 °F - 63.0 °F 96% 29.96 in 4.0 mi Calm Calm - N/A   Clear
2:53 AM 64.9 °F - 64.0 °F 97% 29.93 in 4.0 mi Calm Calm - N/A   Clear
3:07 AM 62.6 °F - 62.6 °F 100% 29.92 in 2.5 mi Calm Calm - N/A   Clear
3:19 AM 62.6 °F - 62.6 °F 100% 29.92 in 1.0 mi Calm Calm - N/A   Mist
3:26 AM 62.6 °F - 62.6 °F 100% 29.92 in 0.2 mi Calm Calm - N/A Fog Fog
3:53 AM 62.1 °F - 62.1 °F 100% 29.92 in 0.5 mi Calm Calm - N/A Fog Fog
4:04 AM 62.6 °F - 60.8 °F 94% 29.92 in 1.8 mi Calm Calm - N/A   Mostly Cloudy
4:16 AM 62.6 °F - 60.8 °F 94% 29.92 in 0.8 mi Calm Calm - N/A   Mist
4:21 AM 62.6 °F - 62.6 °F 100% 29.93 in 1.2 mi Calm Calm - N/A   Partly Cloudy
4:31 AM 62.6 °F - 62.6 °F 100% 29.93 in 2.5 mi Calm Calm - N/A   Partly Cloudy
4:49 AM 62.6 °F - 62.6 °F 100% 29.94 in 1.2 mi Calm Calm - N/A   Clear
4:53 AM 62.1 °F - 62.1 °F 100% 29.94 in 1.2 mi Calm Calm - N/A   Clear
5:03 AM 62.6 °F - 62.6 °F 100% 29.94 in 2.5 mi Calm Calm - N/A   Clear
5:22 AM 62.6 °F - 60.8 °F 94% 29.94 in 1.2 mi South 3.5 mph - N/A   Partly Cloudy
5:36 AM 62.6 °F - 62.6 °F 100% 29.94 in 2.5 mi Calm Calm - N/A   Clear
5:53 AM 62.1 °F - 62.1 °F 100% 29.94 in 2.5 mi Calm Calm - N/A   Clear
6:37 AM 64.4 °F - 62.6 °F 94% 29.94 in 3.0 mi Calm Calm - N/A   Clear
6:53 AM 64.9 °F - 64.0 °F 97% 29.94 in 4.0 mi South 3.5 mph - N/A   Clear
7:53 AM 70.0 °F - 64.9 °F 84% 29.94 in 6.0 mi SSW 3.5 mph - N/A   Haze
8:53 AM 73.0 °F - 66.0 °F 79% 29.94 in 8.0 mi Variable 4.6 mph - N/A   Clear
9:53 AM 77.0 °F - 66.9 °F 71% 29.92 in 10.0 mi SSW 6.9 mph - N/A   Clear
10:53 AM 81.0 °F 83.3 °F 66.9 °F 62% 29.91 in 10.0 mi SSW 8.1 mph - N/A   Clear
11:53 AM 84.0 °F 87.8 °F 69.1 °F 61% 29.88 in 10.0 mi Variable 5.8 mph - N/A   Clear
12:53 PM 87.1 °F 90.6 °F 68.0 °F 53% 29.86 in 10.0 mi SSW 8.1 mph - N/A   Clear
1:53 PM 87.1 °F 90.6 °F 68.0 °F 53% 29.85 in 10.0 mi SW 6.9 mph 18.4 mph N/A   Clear
2:53 PM 88.0 °F 92.1 °F 69.1 °F 53% 29.83 in 10.0 mi SSW 12.7 mph 19.6 mph N/A   Partly Cloudy
3:53 PM 88.0 °F 91.4 °F 68.0 °F 51% 29.81 in 10.0 mi SSW 11.5 mph 18.4 mph N/A   Clear
4:53 PM 87.1 °F 89.9 °F 66.9 °F 51% 29.80 in 10.0 mi South 11.5 mph 20.7 mph N/A   Clear
5:53 PM 82.9 °F 85.8 °F 68.0 °F 60% 29.82 in 10.0 mi SSW 9.2 mph 21.9 mph N/A   Clear
6:53 PM 81.0 °F 83.8 °F 68.0 °F 65% 29.86 in 10.0 mi SE 9.2 mph - N/A   Overcast
7:53 PM 79.0 °F - 66.9 °F 66% 29.87 in 10.0 mi Variable 5.8 mph - N/A   Clear
8:53 PM 73.9 °F - 68.0 °F 82% 29.86 in 10.0 mi Variable 4.6 mph - 0.00 in Rain Light Rain
9:53 PM 71.1 °F - 66.0 °F 84% 29.87 in 10.0 mi NE 5.8 mph - 0.00 in   Overcast
10:48 PM 73.4 °F - 64.4 °F 73% 29.88 in 10.0 mi Calm Calm - N/A   Mostly Cloudy
10:53 PM 70.0 °F - 64.9 °F 84% 29.88 in 10.0 mi ENE 8.1 mph - N/A   Mostly Cloudy
11:53 PM 63.0 °F - 59.0 °F 87% 29.92 in 10.0 mi NE 8.1 mph - N/A   Overcast